Location: Recife
(8.0585°S, 34.8848°W)
Time: 10:32:05
(UTC-03:00)

Vanguard 2 - Pass Details

Date: 19 April 2026
Orbit: 554 x 2894 km, 32.9° (Epoch: 8 May)

Event Time Altitude Azimuth Distance (km) Brightness Sun altitude
Rises 02:22:56 0° 232° (SW) 6,737 - -44.5°
Reaches altitude 10° 02:28:13 10° 224° (SW) 5,654 - -43.2°
Exits shadow 02:38:38 32° 192° (SSW) 3,737 10.7 -40.7°
Maximum altitude 02:43:11 38° 162° (SSE) 3,261 10.6 -39.6°
Drops below altitude 10° 02:53:55 10° 98° (E) 4,118 11.9 -36.9°
Sets 02:57:02 0° 89° (E) 4,799 12.6 -36.2°
